Location: Julian California
(33.0790°N, 116.6010°W)
Time: 19:10:23
(UTC-07:00)

SPOT 5 - Pass Details

Date: 19 May 2017
Orbit: 623 x 816 km, 98.4° (Epoch: 19 August)

Event Time Altitude Azimuth Distance (km) Brightness Sun altitude
Exits shadow 21:07:04 18° 82° (E) 1,559 4.2 -16.0°
Maximum altitude 21:07:47 18° 69° (ENE) 1,525 4.3 -16.2°
Drops below altitude 10° 21:10:44 10° 25° (NNE) 1,994 5.3 -16.6°
Sets 21:13:27 0° 7° (N) 2,904 6.5 -17.1°
